This is the latest recevied weather packets stored in our database for station/object W5HKR. If no packets are shown the sender has not sent any weather packets the latest 1 day(s).
| Time | Temp. | Humidity | Pressure | Rain* | Wind** | Luminosity | Snow |
|---|---|---|---|---|---|---|---|
| 1836274643 | 27.22° C | 51% | 987.8 hPa | 0 mm | 5.36 m/s, 262° | - | - |
| 1836274492 | 27.22° C | 53% | 987.8 hPa | 0 mm | 4.47 m/s, 269° | - | - |
| 1836274342 | 27.22° C | 51% | 987.5 hPa | 0 mm | 4.47 m/s, 269° | - | - |
| 1836274193 | 27.22° C | 52% | 987.5 hPa | 0 mm | 4.47 m/s, 271° | - | - |
| 1836274134 | 27.22° C | 52% | 987.5 hPa | 0 mm | 4.47 m/s, 264° | - | - |
| 1836274043 | 27.22° C | 50% | 987.5 hPa | 0 mm | 4.47 m/s, 266° | - | - |
| 1778049204 | 24.44° C | 88% | 980.5 hPa | 0 mm | 5.36 m/s, 271° | - | - |
| 1778048878 | 18.33° C | 91% | 990.6 hPa | 0 mm | 4.47 m/s, 274° | - | - |
| 1778048605 | 24.44° C | 88% | 980 hPa | 0 mm | 5.81 m/s, 269° | - | - |
| 1778048305 | 18.33° C | 91% | 990.6 hPa | 0 mm | 5.36 m/s, 271° | - | - |
| 1778048005 | 24.44° C | 88% | 980.4 hPa | 0 mm | 5.36 m/s, 271° | - | - |
| 1778047796 | 24.44° C | 88% | 980.3 hPa | 0 mm | 5.36 m/s, 268° | - | - |
| 1778047404 | 24.44° C | 88% | 980.7 hPa | 0 mm | 5.36 m/s, 274° | - | - |
| 1778047105 | 24.44° C | 88% | 980.1 hPa | 0 mm | 5.36 m/s, 264° | - | - |
| 1778046805 | 18.33° C | 91% | 990.6 hPa | 0 mm | 5.36 m/s, 267° | - | - |
| 1778046716 | 24.44° C | 88% | 980.4 hPa | 0 mm | 5.36 m/s, 268° | - | - |
| 1778046505 | 24.44° C | 88% | 980.4 hPa | 0 mm | 5.36 m/s, 271° | - | - |
| 1778046204 | 18.33° C | 91% | 990.6 hPa | 0 mm | 5.36 m/s, 275° | - | - |
| 1778045904 | 24.44° C | 87% | 980.4 hPa | 0 mm | 5.36 m/s, 269° | - | - |
| 1778045635 | 24.44° C | 87% | 980.4 hPa | 0 mm | 4.47 m/s, 269° | - | - |
| 1778045607 | 24.44° C | 87% | 980.6 hPa | 0 mm | 4.02 m/s, 273° | - | - |
| 1778045305 | 18.33° C | 91% | 990.6 hPa | 0 mm | 5.36 m/s, 273° | - | - |
| 1778045007 | 24.44° C | 88% | 980.5 hPa | 0 mm | 5.36 m/s, 270° | - | - |
| 1778044707 | 18.33° C | 91% | 990.6 hPa | 0 mm | 4.47 m/s, 271° | - | - |
| 1778044557 | 18.33° C | 91% | 990.6 hPa | 0 mm | 5.36 m/s, 274° | - | - |
* Rain latest hour (hover to see other rain measurements)
** Current wind speed in m/s (hover to see current wind gust speed)